This is the latest recevied weather packets stored in our database for station/object K9NZF-1. If no packets are shown the sender has not sent any weather packets the latest 10 day(s).
| Time | Temp. | Humidity | Pressure | Rain* | Wind** | Luminosity | Snow |
|---|---|---|---|---|---|---|---|
| 1778362410 | 22.22° C | 53% | 1005.7 hPa | 0 mm | - | 554 W/m² | - |
| 1778362351 | 22.22° C | 55% | 1005.7 hPa | 0 mm | - | 547 W/m² | - |
| 1778362290 | 22.22° C | 54% | 1005.9 hPa | 0 mm | - | 411 W/m² | - |
| 1778362229 | 22.22° C | 54% | 1005.9 hPa | 0 mm | - | 411 W/m² | - |
| 1778362167 | 22.22° C | 54% | 1005.7 hPa | 0 mm | - | 555 W/m² | - |
| 1778362108 | 22.22° C | 53% | 1005.7 hPa | 0 mm | - | 555 W/m² | - |
| 1778362049 | 22.22° C | 52% | 1005.7 hPa | 0 mm | - | 555 W/m² | - |
| 1778361990 | 22.22° C | 54% | 1005.7 hPa | 0 mm | - | 555 W/m² | - |
| 1778361929 | 22.22° C | 54% | 1005.6 hPa | 0 mm | - | 552 W/m² | - |
| 1778361863 | 21.67° C | 56% | 1005.7 hPa | 0 mm | - | 566 W/m² | - |
| 1778361803 | 21.67° C | 58% | 1005.6 hPa | 0 mm | - | 573 W/m² | - |
| 1778361742 | 21.67° C | 59% | 1005.7 hPa | 0 mm | - | 578 W/m² | - |
| 1778361681 | 21.67° C | 56% | 1005.7 hPa | 0 mm | - | 582 W/m² | - |
| 1778361620 | 21.67° C | 54% | 1005.6 hPa | 0 mm | - | 591 W/m² | - |
| 1778361556 | 21.67° C | 54% | 1005.6 hPa | 0 mm | - | 612 W/m² | - |
| 1778361495 | 21.67° C | 54% | 1005.6 hPa | 0 mm | - | 612 W/m² | - |
| 1778361437 | 21.67° C | 55% | 1005.6 hPa | 0 mm | - | 612 W/m² | - |
| 1778361376 | 21.67° C | 56% | 1005.7 hPa | 0 mm | - | 612 W/m² | - |
| 1778361315 | 21.67° C | 58% | 1005.7 hPa | 0 mm | - | 603 W/m² | - |
| 1778361258 | 21.67° C | 58% | 1005.6 hPa | 0 mm | - | 596 W/m² | - |
| 1778361196 | 21.67° C | 58% | 1005.6 hPa | 0 mm | - | 592 W/m² | - |
| 1778361136 | 21.67° C | 59% | 1005.6 hPa | 0 mm | - | 594 W/m² | - |
| 1778361076 | 21.67° C | 59% | 1005.6 hPa | 0 mm | - | 594 W/m² | - |
| 1778361017 | 21.67° C | 59% | 1005.6 hPa | 0 mm | - | 598 W/m² | - |
| 1778360957 | 21.67° C | 57% | 1005.7 hPa | 0 mm | - | 601 W/m² | - |
* Rain latest hour (hover to see other rain measurements)
** Current wind speed in m/s (hover to see current wind gust speed)